This is the latest recevied weather packets stored in our database for station/object WX7FGZ-6. If no packets are shown the sender has not sent any weather packets the latest 1 day(s).
| Time | Temp. | Humidity | Pressure | Rain* | Wind** | Luminosity | Snow |
|---|---|---|---|---|---|---|---|
| 1778038176 | -5° C | 90% | 1013.6 hPa | 0 mm | 0.45 m/s, 275° | - | - |
| 1778037876 | -5° C | 90% | 1013.5 hPa | 0 mm | 0 m/s | - | - |
| 1778037696 | -5° C | 90% | 1013.4 hPa | 0 mm | 0 m/s | - | - |
| 1778037576 | -5° C | 90% | 1013.4 hPa | 0 mm | 0 m/s | - | - |
| 1778037499 | -5° C | 90% | 1013.2 hPa | 0 mm | 0 m/s | - | - |
| 1778037276 | -5° C | 90% | 1013.2 hPa | 0 mm | 0 m/s | - | - |
| 1778036976 | -5° C | 90% | 1013 hPa | 0 mm | 0 m/s | - | - |
| 1778036676 | -5° C | 90% | 1013.5 hPa | 0 mm | 1.34 m/s, 191° | - | - |
| 1778036376 | -5° C | 90% | 1013.5 hPa | 0 mm | 1.34 m/s, 179° | - | - |
| 1778036077 | -5° C | 89% | 1013.4 hPa | 0 mm | 1.79 m/s, 194° | - | - |
| 1778035776 | -4.44° C | 90% | 1013.3 hPa | 0 mm | 0.89 m/s, 180° | - | - |
| 1778035476 | -4.44° C | 89% | 1013.2 hPa | 0 mm | 1.34 m/s, 180° | - | - |
| 1778035291 | -5° C | 90% | 1013.2 hPa | 0 mm | 0.89 m/s, 184° | - | - |
| 1778035176 | -5° C | 90% | 1013.2 hPa | 0 mm | 0.89 m/s, 184° | - | - |
| 1778034876 | -5° C | 89% | 1013 hPa | 0 mm | 1.34 m/s, 181° | - | - |
| 1778034576 | -5° C | 89% | 1013 hPa | 0 mm | 0.89 m/s, 174° | - | - |
| 1778034276 | -4.44° C | 89% | 1012.8 hPa | 0 mm | 0.89 m/s, 176° | - | - |
| 1778034140 | -4.44° C | 90% | 1012.9 hPa | 0 mm | 1.79 m/s, 178° | - | - |
| 1778033976 | -4.44° C | 90% | 1012.9 hPa | 0 mm | 1.79 m/s, 178° | - | - |
| 1778033577 | -5° C | 90% | 1012.6 hPa | 0 mm | 2.24 m/s, 184° | - | - |
| 1778033420 | -5° C | 90% | 1012.6 hPa | 0 mm | 2.24 m/s, 184° | - | - |
| 1778033121 | -5° C | 90% | 1012.8 hPa | 0 mm | 1.34 m/s, 219° | - | - |
| 1778032821 | -4.44° C | 90% | 1012.7 hPa | 0 mm | 2.24 m/s, 175° | - | - |
| 1778032521 | -4.44° C | 90% | 1012.6 hPa | 0 mm | 1.79 m/s, 176° | - | - |
| 1778031946 | -4.44° C | 90% | 1012.4 hPa | 0 mm | 1.34 m/s, 172° | - | - |
* Rain latest hour (hover to see other rain measurements)
** Current wind speed in m/s (hover to see current wind gust speed)